[[{"header":{"parameterUnit":"m.s-1","parameterCategory":1,"la1":30.2991,"la2":30.254,"lo1":-89.0895,"lo2":-89.0444,"dy":0.0017,"dx":0.0017,"nx":28,"ny":28,"refTime":"2025-06-19T21:00:00:Z","depth":0,"parameterNumber":2,"parameterNumberName":"U-component_of_WINDS"},"data":[0,0,0,0,0,0,0,0,0,0,0,0,0,0,0,0,0,0,0,0,0,0,0,0,0,0,0,0,0,0,0,0,0,0,0,0,0,0,0,0,0,0,0,0,0,0,0,0,0,0,0,0,0,0,0,0,0,0,2.3192,2.3191,0,2.3148,2.3147,2.3146,2.3058,2.3056,2.3055,2.3053,2.3009,2.301,2.301,0,0,0,0,0,0,0,0,0,0,0,0,0,2.3201,2.3201,2.3192,2.3191,2.3191,2.3148,2.3147,2.3146,2.3058,2.3056,2.3054,2.3052,2.3009,2.301,2.301,0,0,0,0,0,0,0,0,0,0,0,0,0,2.3181,2.3201,2.3192,2.3142,2.3137,2.3148,2.3147,2.3146,2.3059,2.3056,2.3054,2.3051,2.3009,2.301,2.3011,2.3068,0,0,2.3013,2.3013,0,0,0,0,0,0,0,0,2.3182,2.3181,2.315,2.3145,2.314,2.3106,2.3134,2.312,2.306,2.3088,2.3053,2.305,2.3044,2.3041,2.3039,2.3066,2.3064,2.3013,2.3013,2.3014,2.3014,0,0,0,0,0,0,0,2.3183,2.3182,2.3174,2.3149,2.3143,2.3121,2.3116,2.3131,2.3082,2.3086,2.3079,2.3075,2.304,2.3038,2.3037,2.3063,2.3013,2.3013,2.3014,2.3014,2.3131,2.3133,0,0,0,0,0,0,2.3192,2.3184,2.3176,2.3173,2.3155,2.3123,2.3117,2.3119,2.3081,2.3073,2.3077,2.3071,2.3039,2.3037,2.3035,2.3097,2.3014,2.3014,2.3015,2.3128,2.3131,2.3134,0,0,0,0,0,0,2.3193,2.3192,2.3178,2.3176,2.3173,2.3126,2.3129,2.312,2.3117,2.3075,2.3065,2.3084,2.3036,2.3034,2.3059,2.3094,2.3015,2.3015,2.3125,2.3129,2.3133,2.3222,0,0,0,0,0,0,2.3193,2.3193,2.3214,2.3178,2.3173,2.3203,2.3131,2.3121,2.3119,2.311,2.3079,2.3071,2.3034,2.3059,2.306,2.3094,2.3016,2.3122,2.3127,2.3132,2.3216,2.3229,2.324,0,0,0,0,0,2.3194,2.3242,2.3216,2.3215,2.3199,2.3205,2.3202,2.3158,2.3122,2.3143,2.3115,2.3072,2.3091,2.3062,2.3063,2.3097,2.3119,2.3125,2.3131,2.3211,2.3227,2.324,0,0,0,0,0,0,2.3286,2.3237,2.3207,2.3245,2.3229,2.319,2.3215,2.3177,2.3172,2.3164,2.311,2.3104,2.3136,2.3119,2.3088,2.3149,2.3098,2.3104,2.3158,2.3173,2.3185,2.3187,2.3016,0,0,0,0,0,2.331,2.3319,2.3276,2.3313,2.3307,2.3263,2.3263,2.3231,2.3213,2.3206,2.318,2.3165,2.3166,2.3169,2.3169,2.3214,2.3204,2.3238,2.325,2.326,2.3265,2.3285,2.3298,2.3154,2.3154,2.3154,0,0,2.3361,2.3335,2.3344,2.3331,2.3315,2.3325,2.3258,2.3271,2.3277,2.3208,2.3229,2.321,2.3189,2.3223,2.3237,2.321,2.3303,2.3267,2.3276,2.3276,2.3292,2.3306,2.3318,2.3158,2.3157,2.3157,0,0,2.3458,2.3441,2.3468,2.3453,2.343,2.3399,2.3406,2.3372,2.3356,2.3376,2.3323,2.333,2.3336,2.3322,2.3316,2.3406,2.3365,2.3407,2.3469,2.3489,2.35,2.351,2.3539,2.3551,2.3413,2.3414,2.3414,0,2.3524,2.3536,2.3488,2.3504,2.3498,2.3435,2.3462,2.3451,2.3429,2.3427,2.3397,2.34,2.3382,2.3411,2.3433,2.3431,2.3435,2.341,2.3502,2.3512,2.352,2.3547,2.3559,2.3419,2.3418,2.3418,2.3417,0,2.3617,2.3626,2.3652,2.363,2.3628,2.365,2.3605,2.3609,2.3576,2.3549,2.3569,2.3544,2.3537,2.3541,2.3511,2.3565,2.3549,2.3512,2.3459,2.354,2.3564,2.3574,2.3426,2.3424,2.3423,2.3421,0,0,2.3771,2.3721,2.3731,2.3719,2.3688,2.3693,2.3712,2.3703,2.3706,2.3694,2.3706,2.3711,2.3676,2.3669,2.3636,2.3653,2.3722,2.3613,2.3612,2.3632,2.3778,2.3804,2.3817,2.3696,2.3698,2.3699,2.3778,0,2.3858,2.3886,2.3842,2.388,2.3886,2.3826,2.3841,2.3824,2.3798,2.38,2.3772,2.3775,2.373,2.3725,2.374,2.3711,2.375,2.3705,2.3706,2.3706,2.371,2.383,2.3859,2.3934,2.3788,2.379,2.3791,0,2.3965,2.3955,2.3993,2.3956,2.3957,2.3972,2.3959,2.3962,2.394,2.3921,2.3912,2.3872,2.3886,2.3837,2.3855,2.3825,2.3823,2.3808,2.381,2.3807,2.3752,2.3828,2.3958,2.3968,2.3806,2.3805,2.3804,0,2.4069,2.4066,2.4087,2.4079,2.4038,2.405,2.4033,2.4009,2.4005,2.3995,2.3991,2.3983,2.3978,2.3972,2.3931,2.3899,2.3953,2.3901,2.3935,2.3936,2.3948,2.3947,2.4077,2.3951,2.3951,2.3951,2.3951,0,2.417,2.4195,2.4132,2.4145,2.4171,2.4121,2.4147,2.4125,2.4103,2.411,2.4058,2.4066,2.4011,2.4013,2.3981,2.3999,2.3998,2.3981,2.3972,2.3984,2.3986,2.398,2.3973,2.3954,2.3953,2.3952,2.3952,0,2.429,2.425,2.4268,2.4228,2.4218,2.4238,2.4203,2.4213,2.4184,2.4193,2.4192,2.4147,2.4146,2.4104,2.4095,2.4073,2.4103,2.4086,2.411,2.4104,2.414,2.4136,2.4268,2.4282,2.415,2.4152,2.4153,0,2.4356,2.4373,2.4334,2.4334,2.432,2.4322,2.4318,2.4269,2.4267,2.4242,2.4254,2.4249,2.4241,2.4242,2.4208,2.42,2.4179,2.4227,2.4178,2.4189,2.4177,2.4175,2.4175,2.4236,2.4238,2.4239,2.424,0,2.4476,2.4455,2.4451,2.4439,2.4435,2.4424,2.441,2.4413,2.4359,2.4359,2.4356,2.4351,2.434,2.4334,2.4319,2.4302,2.4262,2.4256,2.4263,2.4275,2.4287,2.4278,2.4135,2.4253,2.4252,2.4251,2.425,2.425,2.4569,2.458,2.4554,2.455,2.4534,2.4521,2.4527,2.4499,2.4495,2.4482,2.4454,2.4455,2.4431,2.4406,2.4392,2.4392,2.4368,2.4379,2.4381,2.4384,2.439,2.4289,2.439,2.4389,2.4389,2.4388,2.4388,0,2.4684,2.4664,2.4661,2.4641,2.4638,2.4601,2.4582,2.4582,2.4583,2.4564,2.4557,2.4553,2.4547,2.4512,2.4501,2.4507,2.4489,2.4506,2.4504,2.45,2.4413,2.4407,2.4521,2.4521,2.4521,2.4521,2.4521,2.4521,2.4743,2.4759,2.4735,2.4742,2.4721,2.4721,2.4714,2.4701,2.4685,2.4682,2.4676,2.4654,2.4627,2.4614,2.4606,2.4596,2.4593,2.4616,2.46,2.4519,2.4506,2.4494,2.4487,2.4617,2.4617,2.4685,2.4686,2.4687]},{"header":{"parameterUnit":"m.s-1","parameterCategory":1,"la1":30.2991,"la2":30.254,"lo1":-89.0895,"lo2":-89.0444,"dy":0.0017,"dx":0.0017,"nx":28,"ny":28,"refTime":"2025-06-19T21:00:00:Z","depth":0,"parameterNumber":3,"parameterNumberName":"V-component_of_WINDS"},"data":[0,0,0,0,0,0,0,0,0,0,0,0,0,0,0,0,0,0,0,0,0,0,0,0,0,0,0,0,0,0,0,0,0,0,0,0,0,0,0,0,0,0,0,0,0,0,0,0,0,0,0,0,0,0,0,0,0,0,4.4515,4.4515,0,4.4599,4.46,4.4601,4.458,4.4579,4.4577,4.4576,4.4654,4.4658,4.4661,0,0,0,0,0,0,0,0,0,0,0,0,0,4.4325,4.4328,4.4514,4.4516,4.4517,4.4599,4.46,4.4601,4.4581,4.4579,4.4577,4.4575,4.4653,4.4657,4.4662,0,0,0,0,0,0,0,0,0,0,0,0,0,4.4408,4.4329,4.4514,4.4516,4.4517,4.4599,4.46,4.4602,4.4581,4.4579,4.4576,4.4574,4.4652,4.4657,4.4662,4.4744,0,0,4.4679,4.4681,0,0,0,0,0,0,0,0,4.4403,4.4415,4.4515,4.4516,4.4518,4.4577,4.4562,4.4649,4.4582,4.4557,4.4576,4.4573,4.463,4.4637,4.4658,4.4748,4.4751,4.4679,4.4683,4.4685,4.4686,0,0,0,0,0,0,0,4.4397,4.4411,4.4548,4.4516,4.4518,4.451,4.4519,4.4579,4.4606,4.4559,4.4557,4.4568,4.463,4.4653,4.466,4.4753,4.4679,4.4684,4.4687,4.4689,4.4911,4.4913,0,0,0,0,0,0,4.4392,4.4406,4.4545,4.455,4.4454,4.4515,4.4525,4.456,4.4605,4.461,4.457,4.4567,4.4645,4.4653,4.4662,4.476,4.4685,4.469,4.4693,4.4908,4.4912,4.4914,0,0,0,0,0,0,4.4388,4.4404,4.4542,4.4478,4.4495,4.4521,4.456,4.4563,4.4586,4.4614,4.4618,4.4589,4.4643,4.4655,4.4724,4.4762,4.4692,4.4697,4.4905,4.4909,4.4913,4.4956,0,0,0,0,0,0,4.4382,4.4403,4.4437,4.4479,4.4499,4.4605,4.4563,4.4567,4.4596,4.4593,4.4633,4.4637,4.4642,4.4716,4.4729,4.4768,4.4702,4.4902,4.4907,4.4912,4.4952,4.4961,4.497,0,0,0,0,0,4.4376,4.4445,4.4439,4.4456,4.4542,4.4607,4.4618,4.4625,4.46,4.4632,4.4649,4.4635,4.4756,4.4723,4.4738,4.4779,4.4899,4.4906,4.4911,4.4948,4.4959,4.4969,0,0,0,0,0,0,4.4404,4.445,4.4444,4.453,4.4565,4.4604,4.4645,4.4638,4.4679,4.4674,4.4679,4.4688,4.4758,4.4776,4.4738,4.486,4.4824,4.4833,4.4846,4.4858,4.4866,4.486,4.4706,0,0,0,0,0,4.4421,4.4473,4.4509,4.4581,4.4599,4.4619,4.4648,4.4651,4.4686,4.47,4.4723,4.4755,4.48,4.483,4.4873,4.4954,4.4961,4.4989,4.4998,4.5005,4.5013,4.5055,4.5067,4.4934,4.4934,4.4934,0,0,4.4454,4.4486,4.4518,4.4587,4.4615,4.4665,4.4632,4.4687,4.4724,4.4708,4.4775,4.4792,4.4829,4.4904,4.4938,4.492,4.5051,4.5013,4.5019,4.5022,4.5062,4.5074,4.5086,4.4938,4.4937,4.4937,0,0,4.4542,4.4573,4.4635,4.4663,4.4706,4.4719,4.4734,4.4774,4.4785,4.4854,4.4842,4.4884,4.4962,4.4988,4.5011,4.5107,4.5094,4.512,4.5167,4.5207,4.5218,4.5227,4.5259,4.5271,4.5128,4.5128,4.5128,0,4.4578,4.4658,4.4667,4.4724,4.4752,4.4742,4.4803,4.4829,4.4883,4.4902,4.4882,4.4979,4.5003,4.5083,4.5106,4.5126,4.514,4.5116,4.5216,4.5226,4.5234,4.5265,4.5277,4.5131,4.513,4.513,4.513,0,4.4698,4.4753,4.4797,4.4852,4.4886,4.4944,4.4959,4.4992,4.4991,4.5005,4.5072,4.51,4.5148,4.5167,4.5166,4.5246,4.5234,4.5215,4.5179,4.525,4.5278,4.529,4.5135,4.5134,4.5133,4.5132,0,0,4.4807,4.4866,4.4881,4.4905,4.4951,4.4992,4.5048,4.5097,4.5124,4.5161,4.5206,4.5272,4.5254,4.5281,4.5282,4.5318,4.5389,4.5295,4.5295,4.531,4.5476,4.5489,4.5503,4.5382,4.5384,4.5386,4.5473,0,4.4897,4.5,4.5009,4.51,4.5148,4.5138,4.5187,4.5218,4.5232,4.5273,4.5287,4.5333,4.5308,4.5323,4.5358,4.5373,4.5422,4.5367,4.5421,4.5423,4.5411,4.5519,4.5533,4.5614,4.5484,4.5486,4.5488,0,4.5017,4.506,4.5156,4.5194,4.5214,4.5258,4.5303,4.5343,4.5377,4.5384,4.5414,4.541,4.5464,4.5426,4.5499,4.5461,4.5483,4.5494,4.5497,4.5501,4.5459,4.5524,4.564,4.5652,4.5506,4.5504,4.5503,0,4.5084,4.5165,4.5233,4.5254,4.53,4.533,4.535,4.5383,4.5411,4.5448,4.5466,4.5509,4.5532,4.5564,4.557,4.5542,4.5642,4.5605,4.5647,4.5647,4.5668,4.5666,4.5788,4.5684,4.5684,4.5684,4.5684,0,4.5184,4.5243,4.5264,4.5305,4.537,4.5378,4.544,4.5458,4.5486,4.5528,4.5521,4.556,4.5567,4.5606,4.5611,4.567,4.568,4.5685,4.5686,4.5686,4.5685,4.5699,4.5693,4.5687,4.5687,4.5686,4.5685,0,4.527,4.5287,4.536,4.5397,4.5408,4.5454,4.5484,4.5522,4.5535,4.5588,4.5601,4.562,4.5666,4.5676,4.573,4.5733,4.5802,4.5797,4.5791,4.579,4.5831,4.5826,4.5965,4.5982,4.5869,4.587,4.5871,0,4.5332,4.5377,4.542,4.5449,4.5471,4.5518,4.5547,4.5555,4.5585,4.5627,4.5659,4.5705,4.5742,4.5815,4.5832,4.5873,4.5868,4.5914,4.5874,4.5871,4.5866,4.5863,4.5867,4.5921,4.5922,4.5923,4.5924,0,4.5439,4.5445,4.5489,4.5536,4.5571,4.5607,4.5642,4.5665,4.5678,4.5711,4.576,4.5788,4.5844,4.5888,4.5929,4.5946,4.5936,4.5936,4.5948,4.5947,4.5941,4.5943,4.581,4.5933,4.5932,4.5931,4.5931,4.593,4.5514,4.5553,4.5589,4.5637,4.5665,4.5697,4.5734,4.5752,4.5793,4.5841,4.5842,4.5894,4.5924,4.5978,4.5998,4.6036,4.6022,4.6039,4.6043,4.6046,4.6049,4.5937,4.6044,4.6043,4.6043,4.6043,4.6043,0,4.5619,4.5642,4.5687,4.5736,4.5773,4.5764,4.5801,4.5831,4.5878,4.5909,4.5946,4.5999,4.6042,4.6062,4.6104,4.613,4.6127,4.6141,4.6138,4.6142,4.6061,4.6046,4.6143,4.6143,4.6143,4.6143,4.6143,4.6143,4.5679,4.5744,4.5754,4.583,4.5852,4.5905,4.5927,4.5955,4.5979,4.6041,4.6077,4.6091,4.6116,4.6159,4.6197,4.6201,4.6216,4.6232,4.6234,4.6158,4.6148,4.6138,4.6124,4.6235,4.6235,4.6311,4.6311,4.6312]}]]